{"data":{"norad_id":67024,"intl_designator":"2025-293X","name":"STARLINK-36192","alt_names":[],"object_type":"PAYLOAD","status":"ACTIVE","operator":null,"country":"US","launch_date":"2025-12-10","launch_site_code":"AFWTR","launch_vehicle":null,"mission":null,"orbit_class":"UNKNOWN","rcs_meters":null,"size_class":null,"mass_kg":null,"dimensions":null,"purposes":["comms"],"wikipedia_slug":null,"has_3d_model":false,"image_url":null,"decayed_at":null,"tle_current":{"epoch":"2026-09-20T13:01:05.788704Z","epoch_age_seconds":78058,"freshness":"FRESH","line1":"1 67024U 25293X   26263.54242811 -.00012206  00000+0 -10168-2 0  9996","line2":"2 67024  70.0048 323.2128 0002796 255.4076 104.6773 14.98335508 44073","mean_motion":14.98335508,"eccentricity":0.0002796,"inclination_deg":70.0048,"raan_deg":323.2128,"arg_perigee_deg":255.4076,"mean_anomaly_deg":104.6773,"bstar":-0.0010168,"rev_number":4407,"period_min":96.106645828753,"perigee_km":570.09558879107,"apogee_km":573.98212713084,"semimajor_km":6950.175857961,"source":"CELESTRAK","updated_at":"2026-09-21T09:00:36.072718Z"}}}